Satellite: RS-30
Catalog number: 32953
Epoch time:      12173.71670317
Element set:     890
Inclination:      082.5021 deg
RA of node:       292.3204 deg
Eccentricity:    0.0017590
Arg of perigee:   299.8570 deg
Mean anomaly:     060.0764 deg
Mean motion:   12.43024781 rev/day
Decay rate:        1.0e-07 rev/day^2
Epoch rev:           18512
Checksum:              274

Satellite: TACSAT-3
Catalog number: 35001
Epoch time:      12121.72616188
Element set:    0001
Inclination:      040.4259 deg
RA of node:       351.8840 deg
Eccentricity:    0.0007146
Arg of perigee:   275.2650 deg
Mean anomaly:     085.0693 deg
Mean motion:   16.45157000 rev/day
Decay rate:  1.5204951e-01 rev/day^2
Epoch rev:           16699
Checksum:              280

Satellite: PHARMSAT
Catalog number: 35002
Epoch time:      12173.78116828
Element set:     947
Inclination:      040.4581 deg
RA of node:       037.8790 deg
Eccentricity:    0.0011622
Arg of perigee:   267.3531 deg
Mean anomaly:     092.6007 deg
Mean motion:   15.86959301 rev/day
Decay rate:    1.10455e-03 rev/day^2
Epoch rev:           17505
Checksum:              291

Satellite: METEOR-M
Catalog number: 35865
Epoch time:      12173.72327914
Element set:     522
Inclination:      098.6546 deg
RA of node:       227.9645 deg
Eccentricity:    0.0003223
Arg of perigee:   051.4921 deg
Mean anomaly:     308.6538 deg
Mean motion:   14.21864581 rev/day
Decay rate:       -6.0e-08 rev/day^2
Epoch rev:           14324
Checksum:              296

Satellite: RS-38
Catalog number: 35869
Epoch time:      12173.67340477
Element set:     528
Inclination:      098.6502 deg
RA of node:       227.9103 deg
Eccentricity:    0.0005336
Arg of perigee:   046.2558 deg
Mean anomaly:     313.9058 deg
Mean motion:   14.22075476 rev/day
Decay rate:        4.1e-07 rev/day^2
Epoch rev:           14325
Checksum:              308

Satellite: JUGNU
Catalog number: 37839
Epoch time:      12173.69331724
Element set:     171
Inclination:      019.9653 deg
RA of node:       330.9477 deg
Eccentricity:    0.0018442
Arg of perigee:   273.1431 deg
Mean anomaly:     086.6863 deg
Mean motion:   14.12063053 rev/day
Decay rate:       6.20e-06 rev/day^2
Epoch rev:            3588
Checksum:              297

Satellite: SRMSAT
Catalog number: 37841
Epoch time:      12173.61246679
Element set:     171
Inclination:      019.9737 deg
RA of node:       336.3916 deg
Eccentricity:    0.0012198
Arg of perigee:   240.0653 deg
Mean anomaly:     119.8593 deg
Mean motion:   14.10145172 rev/day
Decay rate:       2.64e-06 rev/day^2
Epoch rev:            3581
Checksum:              295

Satellite: RAX-2
Catalog number: 37853
Epoch time:      12172.83705496
Element set:    0224
Inclination:      101.7130 deg
RA of node:       214.6845 deg
Eccentricity:    0.0246637
Arg of perigee:   340.5836 deg
Mean anomaly:     018.6083 deg
Mean motion:   14.80094899 rev/day
Decay rate:      2.830e-05 rev/day^2
Epoch rev:           03494
Checksum:              311

Satellite: AUBIESAT
Catalog number: 37854
Epoch time:      12172.85845483
Element set:    0219
Inclination:      101.7142 deg
RA of node:       214.9655 deg
Eccentricity:    0.0247227
Arg of perigee:   339.9275 deg
Mean anomaly:     019.2331 deg
Mean motion:   14.80485375 rev/day
Decay rate:      3.569e-05 rev/day^2
Epoch rev:           03493
Checksum:              321

Satellite: HRBE
Catalog number: 37855
Epoch time:      12172.80486426
Element set:    0215
Inclination:      101.7160 deg
RA of node:       214.8462 deg
Eccentricity:    0.0248010
Arg of perigee:   340.1091 deg
Mean anomaly:     019.0495 deg
Mean motion:   14.80336597 rev/day
Decay rate:      3.173e-05 rev/day^2
Epoch rev:           03492
Checksum:              277

Satellite: RS-39
Catalog number: 38051
Epoch time:      12173.77543609
Element set:     443
Inclination:      051.6406 deg
RA of node:       137.9690 deg
Eccentricity:    0.0013758
Arg of perigee:   055.2883 deg
Mean anomaly:     015.6426 deg
Mean motion:   15.24441930 rev/day
Decay rate:      9.420e-05 rev/day^2
Epoch rev:            2267
Checksum:              305

Satellite: E-STAR
Catalog number: 38079
Epoch time:      12173.75879981
Element set:     304
Inclination:      069.4921 deg
RA of node:       305.2305 deg
Eccentricity:    0.0743639
Arg of perigee:   242.1656 deg
Mean anomaly:     110.1917 deg
Mean motion:   14.14996744 rev/day
Decay rate:     2.2595e-04 rev/day^2
Epoch rev:            1823
Checksum:              323

Satellite: GOLIAT
Catalog number: 38085
Epoch time:      12173.75351498
Element set:     278
Inclination:      069.4908 deg
RA of node:       305.5171 deg
Eccentricity:    0.0749041
Arg of perigee:   242.3556 deg
Mean anomaly:     109.9286 deg
Mean motion:   14.14019890 rev/day
Decay rate:     2.1900e-04 rev/day^2
Epoch rev:            1822
Checksum:              311

